Location: Newark
(44.3681°N, 100.3364°W)
Time: 03:38:37
(UTC+00:00)

Vanguard 1 - Pass Details

Date: 28 February 2020
Orbit: 649 x 3833 km, 34.2° (Epoch: 04 April)

Event Time Altitude Azimuth Distance (km) Brightness Sun altitude
Rises 14:28:16 0° 248° (WSW) 7,886 14.2 10.7°
Reaches altitude 10° 14:33:42 10° 245° (WSW) 6,932 14.0 11.6°
Maximum altitude 14:56:14 60° 174° (S) 3,621 13.4 15.2°
Drops below altitude 10° 15:11:28 10° 100° (E) 4,923 15.2 17.6°
Sets 15:14:34 0° 96° (E) 5,583 15.1 18.1°
